Tracking 20083 objects as of 12-Dec-2019
HD Live streaming from Space Station
objects crossing your sky now

COSMOS 2251 DEB

Track COSMOS 2251 DEB now!
10-day predictions


NORAD ID: 40233
Int'l Code: 1993-036BVN
Perigee: 716.4 km
Apogee: 804.6 km
Inclination: 73.9 °
Period: 99.9 minutes
Semi major axis: 7131 km
RCS: Unknown
Launch date: June 16, 1993
Source: Commonwealth of Independent States (former USSR) (CIS)
Launch site: PLESETSK MISSILE AND SPACE COMPLEX (PKMTR)

Note: This is SATELLITE DEBRIS
aabbcc
Your satellite tracking list
Your tracking list is empty




NASA's NSSDC Master Catalog

Two Line Element Set (TLE):
1 40233U 93036BVN 19345.51641510  .00000402  00000-0  12901-3 0  9990
2 40233  73.9464 259.9674 0061891 104.5608 256.2422 14.41557913439647
Source of the keplerian elements: AFSPC